Hlavní strana
METAR-TAF:

METAR-TAF

Letiště :

Jimmy Lake, Saskatchewan, Kanada

zeměpisná šířka: 54-55N, zeměpisná délka: 109-57W, výška: 658 m

Aktuální stav počasí

Zpráva byla vytvořena před 21 minutami, v 14:00 UTC
Západoseverozápadní vítr 3 kt
Teplota 11°C
Vlhkost vzduchu 76%
Tlak 1026 hPa
Viditelnost: 14.5 km
Jasno

METAR: CWHN 201400Z AUTO 30003KT 9SM CLR 11/07 A3031 RMK SLP278

Čas: 08:21 (14:21 UTC)


TAF: chybějící

Stav a předpovědi počasí z více než 4 000 letišť (zprávy METAR a TAF).

Červené a žluté tečky na mapě představují dostupné meteorologické stanice.

Když kurzor umístíte na tečku, zobrazí se název stanice.

Pak kliknutím zobrazíte stav a předpověď počasí.

Chcete-li změnit mapu, kliknutím na zelené tlačítko se znaménkem +mapu přiblížíte, kliknutím na zelené tlačítko se znaménkem – mapu oddálíte a kliknutím na zelené šipky přejdete na sousední mapy.


METAR-TAF: